DW7346 Weather Reports


Display with metric or nautical units.
time (UTC)temp
F
wind
direction
speed
MPH
gust
MPH
rain 1hr
in
rain 24hr
in
rain mn
in
humidity
%
barometer
mb
20260509181516 84 79 1.0 6.0 0.00 0.01 0.01 71 1007.5
20260509180016 84 31 1.0 5.0 0.00 0.01 0.01 73 1007.6
20260509174509 83 30 1.0 6.0 0.00 0.01 0.01 74 1007.8
20260509173014 84 1 0.0 8.0 0.00 0.01 0.01 71 1007.8
20260509171510 83 359 0.0 8.0 0.00 0.01 0.01 72 1008.0
20260509170003 82 47 1.0 5.0 0.00 0.01 0.01 71 1008.1
20260509164604 82 251 0.0 6.0 0.00 0.01 0.01 72 1008.2
20260509163105 81 321 2.0 6.0 0.00 0.01 0.01 72 1008.2
20260509161558 81 269 2.0 7.0 0.00 0.01 0.01 72 1008.2
20260509160054 80 1 2.0 8.0 0.00 0.01 0.01 73 1008.1
20260509154605 79 359 1.0 5.0 0.00 0.02 0.01 74 1008.0
20260509153049 79 311 1.0 5.0 0.00 0.02 0.01 74 1008.2
20260509151549 78 283 0.0 5.0 0.00 0.02 0.01 79 1008.3
20260509150050 77 340 1.0 4.0 0.00 0.02 0.01 80 1008.3
20260509144539 76 307 1.0 3.0 0.00 0.02 0.01 83 1008.2
20260509143046 74 285 2.0 5.0 0.00 0.02 0.01 84 1008.1
20260509141534 73 309 1.0 5.0 0.00 0.02 0.01 87 1008.2
20260509140029 72 335 1.0 5.0 0.00 0.02 0.01 88 1008.2
20260509134526 72 44 0.0 4.0 0.00 0.02 0.01 91 1008.2
20260509133023 70 310 2.0 5.0 0.00 0.02 0.01 93 1008.0
20260509131521 69 345 1.0 3.0 0.00 0.02 0.01 94 1008.0
20260509130023 69 360 1.0 5.0 0.00 0.02 0.01 95 1008.1
20260509124527 68 297 0.0 4.0 0.00 0.02 0.01 95 1008.1
20260509123021 68 262 1.0 4.0 0.00 0.02 0.01 95 1008.1
20260509121533 68 301 1.0 4.0 0.00 0.02 0.01 95 1008.0
20260509120019 67 300 1.0 5.0 0.00 0.02 0.01 95 1007.9
20260509114537 68 285 0.0 3.0 0.00 0.03 0.01 94 1007.8
20260509113018 68 286 0.0 4.0 0.00 0.03 0.01 94 1007.3
20260509111516 68 286 2.0 5.0 0.00 0.03 0.01 94 1006.8
20260509110016 68 299 1.0 5.0 0.00 0.03 0.01 94 1006.8
20260509104520 68 90 0.0 0.0 0.00 0.04 0.01 93 1006.4
20260509103012 68 55 0.0 0.0 0.00 0.04 0.01 93 1006.1
20260509101512 69 55 0.0 0.0 0.00 0.04 0.01 92 1006.1
20260509100012 69 55 0.0 1.0 0.00 0.04 0.01 91 1006.2
20260509094510 70 65 0.0 0.0 0.00 0.04 0.01 91 1005.7
20260509093010 70 72 0.0 2.0 0.00 0.04 0.01 90 1005.6
20260509091510 70 187 1.0 3.0 0.00 0.04 0.01 90 1005.3
20260509090022 71 185 1.0 4.0 0.00 0.04 0.01 90 1005.5
20260509084508 71 211 0.0 4.0 0.00 0.05 0.01 91 1005.2
20260509083016 71 131 1.0 10.0 0.00 0.05 0.01 91 1003.6
20260509081505 71 241 2.0 8.0 0.00 0.05 0.01 91 1004.0
20260509080002 71 189 3.0 9.0 0.00 0.05 0.01 91 1004.9
20260509074600 71 207 5.0 11.0 0.00 0.06 0.01 91 1005.9
20260509073106 71 235 4.0 10.0 0.00 0.06 0.01 91 1006.7
20260509071551 70 213 6.0 14.0 0.01 0.06 0.01 92 1007.0
20260509070055 69 191 4.0 10.0 0.01 0.06 0.01 93 1007.4
20260509064546 69 209 4.0 8.0 0.01 0.06 0.01 93 1007.8
20260509063050 69 257 2.0 4.0 0.01 0.06 0.01 93 1008.2
20260509061544 69 221 1.0 5.0 0.00 0.05 0.00 92 1008.1
20260509060042 69 200 1.0 3.0 0.00 0.05 0.00 91 1007.8
20260509054542 70 68 0.0 2.0 0.00 0.05 0.00 90 1008.0
20260509053043 70 45 0.0 0.0 0.00 0.05 0.00 89 1008.6
20260509051537 71 14 0.0 1.0 0.00 0.05 0.00 89 1008.7
20260509050048 71 19 0.0 2.0 0.00 0.05 0.00 89 1009.4
20260509044535 71 136 0.0 3.0 0.00 0.05 0.05 87 1008.0
20260509043040 71 90 0.0 2.0 0.00 0.05 0.05 86 1008.0
20260509041530 72 90 0.0 4.0 0.00 0.05 0.05 86 1008.0
20260509040031 72 105 1.0 3.0 0.00 0.05 0.05 86 1007.5
20260509034529 72 151 1.0 3.0 0.00 0.05 0.05 85 1007.0
20260509033037 72 136 2.0 5.0 0.00 0.05 0.05 85 1007.6
20260509031531 72 6 2.0 5.0 0.00 0.05 0.05 85 1008.3
20260509030028 72 62 0.0 4.0 0.00 0.05 0.05 86 1007.8
20260509024529 72 126 1.0 6.0 0.00 0.05 0.05 86 1006.9
20260509023027 72 105 1.0 3.0 0.00 0.05 0.05 85 1006.6
20260509021526 72 165 0.0 2.0 0.00 0.05 0.05 85 1006.1
20260509020025 72 98 0.0 6.0 0.00 0.05 0.05 84 1006.1
20260509014527 72 190 1.0 6.0 0.00 0.05 0.05 84 1005.8
20260509013027 73 203 1.0 5.0 0.00 0.05 0.05 83 1006.1
20260509011522 73 168 0.0 4.0 0.00 0.05 0.05 83 1006.3
20260509010023 73 199 0.0 5.0 0.00 0.05 0.05 82 1006.2
20260509004522 73 207 1.0 5.0 0.00 0.05 0.05 81 1006.0
20260509003024 74 155 1.0 7.0 0.00 0.05 0.05 79 1005.7
20260509001521 74 56 1.0 5.0 0.00 0.05 0.05 78 1005.6
20260509000035 75 149 1.0 9.0 0.00 0.05 0.05 78 1005.6
20260508234517 75 189 1.0 5.0 0.00 0.05 0.05 77 1005.8
20260508233016 75 192 1.0 6.0 0.00 0.05 0.05 75 1006.0
20260508231515 76 168 1.0 7.0 0.00 0.05 0.05 75 1006.0
20260508230014 76 216 2.0 5.0 0.00 0.05 0.05 74 1006.0
20260508224532 76 231 2.0 6.0 0.00 0.05 0.05 74 1006.2
20260508223013 77 188 2.0 5.0 0.00 0.05 0.05 73 1006.2
20260508221515 77 217 3.0 8.0 0.00 0.05 0.05 72 1006.2
20260508220010 76 193 2.0 7.0 0.00 0.05 0.05 72 1006.3
20260508214516 77 212 3.0 9.0 0.00 0.05 0.05 71 1006.2
20260508213009 77 51 1.0 7.0 0.00 0.05 0.05 72 1006.3
20260508211505 77 107 2.0 8.0 0.00 0.05 0.05 72 1006.5
20260508210005 77 181 3.0 10.0 0.00 0.05 0.05 72 1006.6
20260508204501 76 126 1.0 7.0 0.00 0.05 0.05 74 1007.0
20260508203107 73 247 2.0 6.0 0.00 0.05 0.05 75 1007.8
20260508201555 73 219 3.0 9.0 0.00 0.05 0.05 76 1008.5
20260508200108 74 209 1.0 8.0 0.00 0.05 0.05 76 1008.5
20260508194553 74 214 4.0 8.0 0.00 0.05 0.05 75 1008.5
20260508193059 74 175 3.0 10.0 0.00 0.05 0.05 75 1008.6
20260508191550 75 226 3.0 8.0 0.00 0.05 0.05 73 1008.7
20260508190049 76 130 4.0 10.0 0.00 0.05 0.05 72 1008.7
20260508184548 76 216 3.0 8.0 0.00 0.05 0.05 73 1008.7
20260508183101 76 223 1.0 7.0 0.00 0.05 0.05 73 1008.8